Home   Weather   Oshawa   Past weeks

Flag for Canada Past Weather in Oshawa, Ontario, Canada — Yesterday and Last 2 Weeks

Now
55 °F

Passing clouds.


Feels Like: 55 °F
Forecast: 58 / 72 °F
Wind: 3 mph from North

Location: Toronto Buttonville

Current Time: Sep 27, 2016 at 11:41:54 PM

Latest Report: Sep 27, 2016 at 11:00 PM


Visibility: 15 mi

Pressure: 29.86 "Hg

Humidity: 59%

Dew Point: 41 °F

Location of OshawaLocation

Past Weather in Oshawa — Graph

°F

Oshawa Temperature Yesterday

Maximum temperature yesterday: 63 °F (at 11:00 AM)
Minimum temperature yesterday: 52 °F (at 12:00 AM)
Average temperature yesterday: 58 °F

High & Low Weather Summary for the Past Weeks

 TemperatureHumidityPressure
High82 °F (Sep 13, 3:00 PM)100% (Sep 18, 5:45 AM)30.38 "Hg (Sep 18, 5:45 AM)
Low43 °F (Sep 25, 6:00 AM)22% (Sep 20, 6:00 PM)29.74 "Hg (Sep 27, 3:00 PM)
Average64 °F69%30.08 "Hg
* Reported Sep 12 10:00 PM — Sep 27 10:00 PM, Oshawa, Weather by CustomWeather, © 2016

Note: Actual official high and low records may vary slightly from our data, if they occured in-between our weather recording intervals... More about our weather records

Advertising

Oshawa Weather History for the Previous 24 Hours

Scroll right to see more
 ConditionsComfort  
Time TempWeatherWind HumidityBarometerVisibility
10:00 PM
Tue, Sep 27
57 °FPassing clouds.No wind55%29.84 "Hg15 mi
9:00 PM61 °FPassing clouds.5 mph42%29.83 "Hg15 mi
8:00 PM61 °FPassing clouds.6 mph45%29.81 "Hg15 mi
7:00 PM64 °FPassing clouds.7 mph37%29.79 "Hg15 mi
6:00 PM68 °FPassing clouds.13 mph30%29.77 "Hg15 mi
5:00 PM68 °FScattered clouds.12 mph35%29.75 "Hg15 mi
4:00 PM68 °FScattered clouds.14 mph43%29.75 "Hg15 mi
3:00 PM68 °FPartly sunny.12 mph33%29.74 "Hg15 mi
2:00 PM68 °FPartly sunny.17 mph30%29.75 "Hg15 mi
1:00 PM68 °FPartly sunny.13 mph35%29.75 "Hg15 mi
12:00 PM68 °FScattered clouds.10 mph38%29.76 "Hg15 mi
11:00 AM64 °FScattered clouds.12 mph46%29.78 "Hg15 mi
10:00 AM59 °FPassing clouds.7 mph59%29.79 "Hg15 mi
9:00 AM55 °FPassing clouds.3 mph67%29.80 "Hg15 mi
8:00 AM48 °FPassing clouds.3 mph87%29.81 "Hg15 mi
7:00 AM45 °FPassing clouds.No wind93%29.81 "Hg15 mi
6:00 AM48 °FClear.2 mph82%29.81 "Hg15 mi
5:00 AM50 °FClear.3 mph76%29.82 "Hg15 mi
4:00 AM52 °FClear.2 mph77%29.83 "Hg15 mi
3:00 AM52 °FClear.5 mph77%29.83 "Hg15 mi
2:00 AM54 °FClear.3 mph77%29.83 "Hg15 mi
1:00 AM54 °FPassing clouds.5 mph82%29.84 "Hg15 mi
12:00 AM55 °FPassing clouds.6 mph82%29.85 "Hg15 mi
11:00 PM
Mon, Sep 26
55 °FPassing clouds.5 mph88%29.86 "Hg15 mi
Weather by CustomWeather, © 2016

See weather overviewHow to use our weather pages